Showing default

ICEYE-X48, 63253

Orbit data source: Space-Track

ICEYE-X48, 63253 is a payload satellite owned by ICEYE US (US) in SSO that was launched on Sat, 15 Mar 2025 UTC via an FALCON 9 launch vehicle from the Air Force Western Test Range (AFWTR). Payload-class satellites include a variety of spacecraft equipped with specific instruments for various scientific and technological missions. These include communications satellites like Starlink; space stations such as the ISS; scientific satellites like the Hubble; Earth observation satellites from companies like Planet Labs, Umbra, and HawkEye 360; GPS; miniature CubeSats for education and research; and military/defense satellites.

Loading next visibility...
Identifier
63253, 2025-052AV
Orbit
SSO
Country
Flag of USUS
Related business
Manufacturer
ICEYE
Mission
Operational Commercial Radar Imaging
Bus & Motor
ICEYE, Unknown motor
Mass
80 kg wet, 80 kg dry
Launch date (UTC)
2025-03-15 (7 months ago)
Launch vehicle
FALCON 9
Launch site
Air Force Western Test Range (AFWTR)
Object type
Payload
Rocket body
Debris
Shape & HBR
Box + 1 Pan, 0.7 m
Radar Cross Section
0.776 m², Medium (>0.1 m² and < 1m²)

Expand to show TLE details & history
Last TLE update: 1 day ago

TLE from 1 day ago
0 ICEYE-X48
1 63253U 25052AV  25287.42296646  .00002896  00000-0  28123-3 0  9990
2 63253  97.7086 178.6014 0001818   2.5189 357.6039 14.93387977 31924
Epoch: 2025-10-14T10:09Z
TLE epoch observation values (Epoch: 2025-10-14T10:09:04.302Z)
Latitude
-0.00007°
Longitude
3.12187°
Altitude
589.161 km
Speed
7.566 km/s
True Right ascension
11h 54m 24s
True Declination
0° 00' 00"
Sunlit
Object was in daylight at epoch
Visualization orbit readout
Latitude
Unknown
Longitude
Unknown
Altitude
Unknown
Speed
Unknown
Apparent Right ascension
Unknown
Apparent Declination
Unknown
Sunlit
N/A
Visualization observer readout
Local Sidereal Time
05:49:04
Azimuth
Unknown
Elevation
Unknown
Doppler factor
Unknown
Orbital elements
Apogee altitude
585.661 km
Perigee altitude
583.13 km
Semi-major axis
6,962.532 km
Eccentricity
0.00018
Inclination
97.7086°
RAAN
178.6014°
Arg. of periapsis
2.5189°
True anomaly
357.60303°
Mean anomaly
357.6039°
Eccentric anomaly
357.60346°
Mean motion
3.73587 °/min
Orbital period
96.36 mins
BSTAR
0.00028123
Loading maneuver chart data...
Computing Atmospheric mass density...
Loading historical data...
Loading historical data...
Loading historical data...
Loading historical data...
Loading historical data...
Loading historical data...
Loading historical data...

Documentation

Showing up to 5 results
|